Tracking 30743 objects as of 20-Jun-2025
HD Live streaming from Space Station
objects crossing your sky now

ST5-A

Track ST5-A now!
10-day predictions
ST5-A is classified as:


NORAD ID: 28980
Int'l Code: 2006-008A
Perigee: 307.4 km
Apogee: 3,053.7 km
Inclination: 105.5 °
Period: 119.8 minutes
Semi major axis: 8051 km
RCS: 0.3025 m2 (medium)
Launch date: March 22, 2006
Source: United States (US)
Launch site: Pegasus launched from Western Range Air Space (WRAS)
Your satellite tracking list
Your tracking list is empty




NASA's NSSDC Master Catalog

Two Line Element Set (TLE):
1 28980U 06008A   25170.38090443  .00013837  26977-5  56733-3 0  9992
2 28980 105.4883  95.9048 1705400 130.3769 245.9173 12.01664911778744
Source of the keplerian elements: AFSPC